Time,TemperatureF,DewpointF,PressureIn,WindDirection,WindDirectionDegrees,WindSpeedMPH,WindSpeedGustMPH,Humidity,HourlyPrecipIn,Conditions,Clouds,dailyrainin,SolarRadiationWatts/m^2,SoftwareType,DateUTC
2013-02-14 00:01:00,40.0,40.0,-100.00,North,6,0.0,4.0,100,0.00,,,0.07,5.000000,,2013-02-14 08:01:00,
2013-02-14 00:11:00,40.0,40.0,-100.00,North,6,0.0,4.0,100,0.00,,,0.07,5.000000,,2013-02-14 08:11:00,
2013-02-14 00:43:00,40.0,40.0,-100.00,North,355,0.0,5.0,100,0.00,,,0.07,4.000000,,2013-02-14 08:43:00,
2013-02-14 00:52:00,40.0,40.0,-100.00,North,355,0.0,5.0,100,0.00,,,0.07,4.000000,,2013-02-14 08:52:00,
2013-02-14 01:01:00,40.0,40.0,-100.00,North,355,0.0,5.0,100,0.00,,,0.07,4.000000,,2013-02-14 09:01:00,
2013-02-14 01:11:00,40.0,40.0,-100.00,North,355,0.0,5.0,100,0.00,,,0.07,4.000000,,2013-02-14 09:11:00,
2013-02-14 01:32:00,40.0,40.0,-100.00,North,10,0.0,4.0,100,0.00,,,0.07,5.000000,,2013-02-14 09:32:00,
2013-02-14 01:42:00,40.0,40.0,-100.00,North,10,0.0,4.0,100,0.00,,,0.07,5.000000,,2013-02-14 09:42:00,
2013-02-14 01:52:00,40.0,40.0,-100.00,North,10,0.0,4.0,100,0.00,,,0.07,5.000000,,2013-02-14 09:52:00,
2013-02-14 02:01:00,40.0,40.0,-100.00,North,10,0.0,4.0,100,0.00,,,0.07,5.000000,,2013-02-14 10:01:00,
2013-02-14 02:11:00,40.0,40.0,-100.00,North,10,0.0,4.0,100,0.00,,,0.07,5.000000,,2013-02-14 10:11:00,
2013-02-14 02:32:00,39.0,39.0,-100.00,SE,142,0.0,3.0,100,0.00,,,0.07,4.000000,,2013-02-14 10:32:00,
2013-02-14 02:42:00,39.0,39.0,-100.00,SE,142,0.0,3.0,100,0.00,,,0.07,4.000000,,2013-02-14 10:42:00,
2013-02-14 02:52:00,39.0,39.0,-100.00,SE,142,0.0,3.0,100,0.00,,,0.07,4.000000,,2013-02-14 10:52:00,
2013-02-14 03:01:00,39.0,39.0,-100.00,SE,142,0.0,3.0,100,0.00,,,0.07,4.000000,,2013-02-14 11:01:00,
2013-02-14 03:11:00,39.0,39.0,-100.00,SE,142,0.0,3.0,100,0.00,,,0.07,4.000000,,2013-02-14 11:11:00,
2013-02-14 03:32:00,40.0,40.0,-100.00,East,89,0.0,0.0,100,0.00,,,0.07,4.000000,,2013-02-14 11:32:00,
2013-02-14 03:42:00,40.0,40.0,-100.00,East,89,0.0,0.0,100,0.00,,,0.07,4.000000,,2013-02-14 11:42:00,
2013-02-14 03:52:00,40.0,40.0,-100.00,East,89,0.0,0.0,100,0.00,,,0.07,4.000000,,2013-02-14 11:52:00,
2013-02-14 04:01:00,40.0,40.0,-100.00,East,89,0.0,0.0,100,0.00,,,0.07,4.000000,,2013-02-14 12:01:00,
2013-02-14 04:11:00,40.0,40.0,-100.00,East,89,0.0,0.0,100,0.00,,,0.07,4.000000,,2013-02-14 12:11:00,
2013-02-14 04:32:00,39.0,39.0,-100.00,North,10,0.0,4.0,100,0.00,,,-99.99,4.000000,,2013-02-14 12:32:00,
2013-02-14 04:42:00,39.0,39.0,-100.00,North,10,0.0,4.0,100,0.00,,,-99.99,4.000000,,2013-02-14 12:42:00,
2013-02-14 04:53:00,39.0,39.0,-100.00,North,10,0.0,4.0,100,0.00,,,-99.99,4.000000,,2013-02-14 12:53:00,
2013-02-14 05:01:00,39.0,39.0,-100.00,North,10,0.0,4.0,100,0.00,,,-99.99,4.000000,,2013-02-14 13:01:00,
2013-02-14 05:11:00,39.0,39.0,-100.00,North,10,0.0,4.0,100,0.00,,,-99.99,4.000000,,2013-02-14 13:11:00,
2013-02-14 06:42:00,38.0,38.0,-100.00,North,1,1.0,4.0,100,-99.99,,,0.05,4.000000,,2013-02-14 14:42:00,
2013-02-14 06:52:00,38.0,38.0,-100.00,North,1,1.0,4.0,100,-99.99,,,0.05,4.000000,,2013-02-14 14:52:00,
2013-02-14 07:01:00,38.0,38.0,-100.00,North,1,1.0,4.0,100,-99.99,,,0.05,4.000000,,2013-02-14 15:01:00,
2013-02-14 07:11:00,38.0,38.0,-100.00,North,1,1.0,4.0,100,-99.99,,,0.05,4.000000,,2013-02-14 15:11:00,
2013-02-14 07:32:00,38.0,38.0,-100.00,WSW,239,0.0,3.0,100,0.00,,,0.05,5.000000,,2013-02-14 15:32:00,
2013-02-14 07:42:00,38.0,38.0,-100.00,WSW,239,0.0,3.0,100,0.00,,,0.05,5.000000,,2013-02-14 15:42:00,
2013-02-14 07:52:00,38.0,38.0,-100.00,WSW,239,0.0,3.0,100,0.00,,,0.05,5.000000,,2013-02-14 15:52:00,
2013-02-14 08:01:00,38.0,38.0,-100.00,WSW,239,0.0,3.0,100,0.00,,,0.05,5.000000,,2013-02-14 16:01:00,
2013-02-14 08:11:00,38.0,38.0,-100.00,WSW,239,0.0,3.0,100,0.00,,,0.05,5.000000,,2013-02-14 16:11:00,
2013-02-14 08:42:00,39.0,39.0,-100.00,NE,39,0.0,0.0,100,0.00,,,0.05,64.000000,,2013-02-14 16:42:00,
2013-02-14 08:52:00,39.0,39.0,-100.00,NE,39,0.0,0.0,100,0.00,,,0.05,64.000000,,2013-02-14 16:52:00,
2013-02-14 09:01:00,39.0,39.0,-100.00,NE,39,0.0,0.0,100,0.00,,,0.05,64.000000,,2013-02-14 17:01:00,
2013-02-14 09:11:00,39.0,39.0,-100.00,NE,39,0.0,0.0,100,0.00,,,0.05,64.000000,,2013-02-14 17:11:00,
2013-02-14 09:32:00,44.0,44.0,-100.00,North,359,0.0,3.0,100,0.01,,,0.06,276.000000,,2013-02-14 17:32:00,
2013-02-14 09:42:00,44.0,44.0,-100.00,North,359,0.0,3.0,100,0.01,,,0.06,276.000000,,2013-02-14 17:42:00,
2013-02-14 09:52:00,44.0,44.0,-100.00,North,359,0.0,3.0,100,0.01,,,0.06,276.000000,,2013-02-14 17:52:00,
2013-02-14 10:01:00,44.0,44.0,-100.00,North,359,0.0,3.0,100,0.01,,,0.06,276.000000,,2013-02-14 18:01:00,
2013-02-14 10:11:00,44.0,44.0,-100.00,North,359,0.0,3.0,100,0.01,,,0.06,276.000000,,2013-02-14 18:11:00,
2013-02-14 10:42:00,46.0,46.0,-100.00,South,191,1.0,5.0,99,0.00,,,0.06,402.000000,,2013-02-14 18:42:00,
2013-02-14 10:52:00,46.0,46.0,-100.00,South,191,1.0,5.0,99,0.00,,,0.06,402.000000,,2013-02-14 18:52:00,
2013-02-14 11:01:00,46.0,46.0,-100.00,South,191,1.0,5.0,99,0.00,,,0.06,402.000000,,2013-02-14 19:01:00,
2013-02-14 11:11:00,46.0,46.0,-100.00,South,191,1.0,5.0,99,0.00,,,0.06,402.000000,,2013-02-14 19:11:00,
2013-02-14 11:42:00,54.0,50.0,-100.00,SW,227,0.0,7.0,86,0.00,,,0.06,515.000000,,2013-02-14 19:42:00,
2013-02-14 11:52:00,54.0,50.0,-100.00,SW,227,0.0,7.0,86,0.00,,,0.06,515.000000,,2013-02-14 19:52:00,
2013-02-14 12:01:00,54.0,50.0,-100.00,SW,227,0.0,7.0,86,0.00,,,0.06,515.000000,,2013-02-14 20:01:00,
2013-02-14 12:11:00,54.0,50.0,-100.00,SW,227,0.0,7.0,86,0.00,,,0.06,515.000000,,2013-02-14 20:11:00,
2013-02-14 12:32:00,55.0,41.0,-100.00,SW,223,0.0,8.0,59,0.00,,,0.06,682.000000,,2013-02-14 20:32:00,
2013-02-14 12:42:00,55.0,41.0,-100.00,SW,223,0.0,8.0,59,0.00,,,0.06,682.000000,,2013-02-14 20:42:00,
2013-02-14 12:52:00,55.0,41.0,-100.00,SW,223,0.0,8.0,59,0.00,,,0.06,682.000000,,2013-02-14 20:52:00,
2013-02-14 13:02:00,55.0,41.0,-100.00,SW,223,0.0,8.0,59,0.00,,,0.06,682.000000,,2013-02-14 21:02:00,
2013-02-14 13:11:00,55.0,41.0,-100.00,SW,223,0.0,8.0,59,0.00,,,0.06,682.000000,,2013-02-14 21:11:00,
2013-02-14 13:42:00,54.0,48.0,-100.00,NNE,15,2.0,8.0,80,0.00,,,0.06,709.000000,,2013-02-14 21:42:00,
2013-02-14 13:52:00,54.0,48.0,-100.00,NNE,15,2.0,8.0,80,0.00,,,0.06,709.000000,,2013-02-14 21:52:00,
2013-02-14 14:02:00,54.0,48.0,-100.00,NNE,15,2.0,8.0,80,0.00,,,0.06,709.000000,,2013-02-14 22:02:00,
2013-02-14 14:11:00,54.0,48.0,-100.00,NNE,15,2.0,8.0,80,0.00,,,0.06,709.000000,,2013-02-14 22:11:00,
2013-02-14 14:32:00,54.0,48.0,-100.00,NNE,20,2.0,11.0,80,0.00,,,0.05,662.000000,,2013-02-14 22:32:00,
2013-02-14 14:42:00,54.0,48.0,-100.00,NNE,20,2.0,11.0,80,0.00,,,0.05,662.000000,,2013-02-14 22:42:00,
2013-02-14 14:52:00,54.0,48.0,-100.00,NNE,20,2.0,11.0,80,0.00,,,0.05,662.000000,,2013-02-14 22:52:00,
2013-02-14 15:01:00,54.0,48.0,-100.00,NNE,20,2.0,11.0,80,0.00,,,0.05,662.000000,,2013-02-14 23:01:00,
2013-02-14 15:11:00,54.0,48.0,-100.00,NNE,20,2.0,11.0,80,0.00,,,0.05,662.000000,,2013-02-14 23:11:00,
2013-02-14 15:32:00,51.0,48.0,-100.00,NNE,26,3.0,9.0,88,0.00,,,0.05,540.000000,,2013-02-14 23:32:00,
2013-02-14 15:42:00,51.0,48.0,-100.00,NNE,26,3.0,9.0,88,0.00,,,0.05,540.000000,,2013-02-14 23:42:00,
2013-02-14 15:52:00,51.0,48.0,-100.00,NNE,26,3.0,9.0,88,0.00,,,0.05,540.000000,,2013-02-14 23:52:00,
2013-02-14 16:01:00,51.0,48.0,-100.00,NNE,26,3.0,9.0,88,0.00,,,0.05,540.000000,,2013-02-15 00:01:00,
2013-02-14 16:11:00,51.0,48.0,-100.00,NNE,26,3.0,9.0,88,0.00,,,0.05,540.000000,,2013-02-15 00:11:00,
2013-02-14 16:32:00,50.0,47.0,-100.00,NNW,346,1.0,8.0,88,0.00,,,0.03,376.000000,,2013-02-15 00:32:00,
2013-02-14 16:42:00,50.0,47.0,-100.00,NNW,346,1.0,8.0,88,0.00,,,0.03,376.000000,,2013-02-15 00:42:00,
2013-02-14 16:52:00,50.0,47.0,-100.00,NNW,346,1.0,8.0,88,0.00,,,0.03,376.000000,,2013-02-15 00:52:00,
2013-02-14 17:01:00,50.0,47.0,-100.00,NNW,346,1.0,8.0,88,0.00,,,0.03,376.000000,,2013-02-15 01:01:00,
2013-02-14 17:11:00,50.0,47.0,-100.00,NNW,346,1.0,8.0,88,0.00,,,0.03,376.000000,,2013-02-15 01:11:00,
2013-02-14 18:32:00,43.0,43.0,-100.00,NW,326,1.0,9.0,100,-99.99,,,0.01,13.000000,,2013-02-15 02:32:00,
2013-02-14 18:42:00,43.0,43.0,-100.00,NW,326,1.0,9.0,100,-99.99,,,0.01,13.000000,,2013-02-15 02:42:00,
2013-02-14 18:52:00,43.0,43.0,-100.00,NW,326,1.0,9.0,100,-99.99,,,0.01,13.000000,,2013-02-15 02:52:00,
2013-02-14 19:01:00,43.0,43.0,-100.00,NW,326,1.0,9.0,100,-99.99,,,0.01,13.000000,,2013-02-15 03:01:00,
2013-02-14 19:11:00,43.0,43.0,-100.00,NW,326,1.0,9.0,100,-99.99,,,0.01,13.000000,,2013-02-15 03:11:00,
2013-02-14 19:32:00,41.0,41.0,-100.00,North,356,4.0,8.0,100,0.00,,,0.01,5.000000,,2013-02-15 03:32:00,
2013-02-14 19:42:00,41.0,41.0,-100.00,North,356,4.0,8.0,100,0.00,,,0.01,5.000000,,2013-02-15 03:42:00,
2013-02-14 19:52:00,41.0,41.0,-100.00,North,356,4.0,8.0,100,0.00,,,0.01,5.000000,,2013-02-15 03:52:00,
2013-02-14 20:01:00,41.0,41.0,-100.00,North,356,4.0,8.0,100,0.00,,,0.01,5.000000,,2013-02-15 04:01:00,
2013-02-14 20:11:00,41.0,41.0,-100.00,North,356,4.0,8.0,100,0.00,,,0.01,5.000000,,2013-02-15 04:11:00,
2013-02-14 20:32:00,43.0,43.0,-100.00,North,352,5.0,8.0,100,0.00,,,0.01,5.000000,,2013-02-15 04:32:00,
2013-02-14 20:42:00,43.0,43.0,-100.00,North,352,5.0,8.0,100,0.00,,,0.01,5.000000,,2013-02-15 04:42:00,
2013-02-14 20:52:00,43.0,43.0,-100.00,North,352,5.0,8.0,100,0.00,,,0.01,5.000000,,2013-02-15 04:52:00,
2013-02-14 21:01:00,43.0,43.0,-100.00,North,352,5.0,8.0,100,0.00,,,0.01,5.000000,,2013-02-15 05:01:00,
2013-02-14 21:11:00,43.0,43.0,-100.00,North,352,5.0,8.0,100,0.00,,,0.01,5.000000,,2013-02-15 05:11:00,
2013-02-14 21:42:00,42.0,42.0,-100.00,North,2,5.0,10.0,100,0.00,,,-99.99,5.000000,,2013-02-15 05:42:00,
2013-02-14 21:52:00,42.0,42.0,-100.00,North,2,5.0,10.0,100,0.00,,,-99.99,5.000000,,2013-02-15 05:52:00,
2013-02-14 22:01:00,42.0,42.0,-100.00,North,2,5.0,10.0,100,0.00,,,-99.99,5.000000,,2013-02-15 06:01:00,
2013-02-14 22:11:00,42.0,42.0,-100.00,North,2,5.0,10.0,100,0.00,,,-99.99,5.000000,,2013-02-15 06:11:00,
2013-02-14 22:32:00,40.0,40.0,-100.00,North,353,3.0,8.0,100,0.00,,,0.01,5.000000,,2013-02-15 06:32:00,
2013-02-14 22:42:00,40.0,40.0,-100.00,North,353,3.0,8.0,100,0.00,,,0.01,5.000000,,2013-02-15 06:42:00,
2013-02-14 22:52:00,40.0,40.0,-100.00,North,353,3.0,8.0,100,0.00,,,0.01,5.000000,,2013-02-15 06:52:00,
2013-02-14 23:01:00,40.0,40.0,-100.00,North,353,3.0,8.0,100,0.00,,,0.01,5.000000,,2013-02-15 07:01:00,
2013-02-14 23:11:00,40.0,40.0,-100.00,North,353,3.0,8.0,100,0.00,,,0.01,5.000000,,2013-02-15 07:11:00,
2013-02-14 23:42:00,42.0,42.0,-100.00,NNW,342,2.0,8.0,100,0.00,,,0.01,4.000000,,2013-02-15 07:42:00,
2013-02-14 23:52:00,42.0,42.0,-100.00,NNW,342,2.0,8.0,100,0.00,,,0.01,4.000000,,2013-02-15 07:52:00,